sat.trackr.live / text

‹ back to catalog

CENTISPACE-1 S4

NORAD 53758 · 2022-108B

PAYLOAD ACTIVE UNKNOWN

§ Identity

Operator
Country
PRC
Launch date
2022-09-06
Launch site
JSC
Launch vehicle
Mass (kg)
RCS (m²)

External: N2YO · Heavens-Above · Gunter

§ Orbital elements

Epoch: 2026-09-20T18:24:32.859072Z

Period
98.49 min
Inclination
53.5320°
Eccentricity
0.0008072
Mean motion
14.62029038 rev/d
Perigee alt
680.9 km
Apogee alt
692.3 km
Semi-major
7,064.8 km
B*
9.6946e-5
RAAN
17.0608°
Arg perigee
218.7575°
Mean anomaly
141.2822°
Rev number
21,554

§ Raw data

CENTISPACE-1 S41 53758U 22108B   26263.76704698  .00000300  00000+0  96946-4 0  99972 53758  53.5320  17.0608 0008072 218.7575 141.2822 14.62029038215544

JSON: /api/v1/satellites/53758 · /tle

For live sub-satellite position, see the globe view (requires WebGL).

§ Visibility from observer

Set your observer location to see the next 7 days of passes ≥ 10°. The values pass through the URL so the page stays shareable.

No JS? Fill the form by hand. The geolocation button needs JavaScript.

§ Radio — SatNOGS DB

ModeDescriptionDownlinkUplink
FM L-band GPS data 1.575 GHz
FM S-band telemetry 2.220 GHz

2 transmitters · refreshed weekly from db.satnogs.org